STARLINK-11290 [DTC] (61000 NORAD) Tracking and Keplerian Element Data

This shows tracking and keplerian element data for the satellite.

Feedback or suggestion? Click here.




ElementValue
Catalog61000
NameSTARLINK-11290 [DTC]
Epoch Orbit609
Epoch Day286.91668981
Epoch Year2024
RAAN289.0661
Inclination53.1586
Eccentricity9.85E-05
Argument of Perigee90.5063
Mean Anonmoly49.6003
Mean Motion15.6974182
Decay Rate-0.00050428
L11 61000U 24158L 24286.91668981 -.00050428 00000+0 -41336-3 0 9997
L22 61000 53.1586 289.0661 0000985 90.5063 49.6003 15.69741820 6094



Live tracking and technical data element details for STARLINK-11290 [DTC] (NORAD 61000). STARLINK-11290 [DTC] can be tracked NOW for your location showing map with azimuth and elevation plus other details from your city location.







IsCatalogInMostPopularTable: catalog: 61000, numindb: 9
Update: records affected: 1



GetName: 61000 STARLINK-11290 [DTC]

Hit Count: updated at: Tue, 03 Dec 2024 02:58:16 GMT